Theta_e
346 345 346 345 346 347 350 351 351 345 343 344 346 343 344 345 350 350 349 350 350 351 350 350 349 351 350 348 347 347 346 346 347 347 348 349 349 348 345 342 342 345 348
346 345 345 345 352 351 348 349 348 347 346 343 340 344 347 351 348 349 350 351 351 351 350 350 350 350 351 350 346 344 347 345 344 347 348 347 348 348 347 348 348 344 349
346 346 345 348 351 352 349 345 344 344 340 340 343 350 352 346 350 351 349 350 349 350 350 350 350 350 350 347 343 344 347 347 343 347 346 345 346 347 348 348 347 347 346
347 346 349 348 350 351 348 348 350 348 342 343 349 351 348 350 351 351 350 350 350 350 350 350 350 347 342 342 342 344 344 348 343 344 347 345 346 348 347 349 347 347 346
347 346 351 348 351 350 350 349 348 349 346 349 352 351 351 351 351 351 351 349 348 348 349 349 347 345 343 342 342 343 345 347 344 341 347 347 345 347 346 346 346 345 347
346 347 349 350 351 352 352 351 350 351 352 351 350 351 351 351 351 351 347 347 348 351 350 349 346 344 343 342 344 344 345 346 349 344 345 346 346 345 345 347 347 347 346
346 348 349 349 350 352 351 350 351 350 343 349 351 351 350 350 350 351 349 348 351 351 348 347 346 344 344 344 344 343 343 342 348 346 344 345 345 347 349 348 347 346 346
347 349 349 349 349 350 352 351 352 350 350 349 351 347 345 344 345 347 348 349 351 351 347 343 343 343 343 344 345 345 344 342 346 345 343 344 345 347 349 347 344 346 346
348 350 350 348 351 352 352 351 350 350 348 349 345 344 343 343 344 346 345 345 347 346 344 344 344 344 344 345 344 344 342 343 347 345 341 342 345 348 347 346 336 345 345
349 350 351 349 349 349 350 351 348 348 345 345 344 342 342 343 346 348 346 345 345 343 343 344 344 344 345 345 344 344 335 342 345 346 343 345 346 348 346 348 338 344 345
349 348 349 348 349 349 350 350 348 345 344 343 343 343 347 352 351 351 347 346 346 346 345 346 346 346 345 345 345 345 343 339 339 344 344 340 344 344 346 345 345 341 342
348 348 347 347 347 348 348 350 350 349 348 350 350 347 351 347 347 347 348 346 346 345 346 346 346 347 346 349 347 343 348 343 342 345 345 337 337 347 347 342 345 344 342
346 346 347 348 348 348 348 349 350 347 348 348 339 339 342 346 346 350 348 349 346 347 350 350 349 348 346 349 350 349 350 345 344 343 346 339 338 345 345 343 340 342 341
346 347 348 349 350 349 348 349 350 347 347 346 346 337 340 345 347 349 351 346 347 347 347 345 349 346 344 344 350 350 347 347 345 340 344 342 338 345 348 345 343 339 344
345 346 348 350 351 351 349 350 351 349 345 345 341 336 341 347 348 349 348 347 347 348 349 348 347 348 345 346 347 349 347 347 344 343 343 340 340 341 343 344 340 342 344
344 345 347 349 350 351 350 350 350 348 346 340 343 340 337 345 348 350 349 347 347 347 349 347 345 346 348 347 346 349 347 343 347 343 345 344 339 339 339 341 342 342 343
344 345 347 349 350 351 351 348 348 346 344 343 342 335 339 344 348 348 350 351 350 348 348 348 347 345 343 337 335 346 348 344 348 345 345 345 343 338 338 338 339 340 342
345 345 347 347 349 350 351 349 347 345 343 343 343 343 340 345 348 349 352 352 352 349 348 345 350 349 342 335 335 337 335 346 348 345 347 345 344 343 339 337 338 338 338
347 347 347 348 348 349 350 348 345 341 339 343 345 348 347 348 348 349 349 351 348 351 350 348 350 347 337 337 336 337 336 340 341 337 345 347 344 344 344 342 339 338 338
349 350 350 349 350 349 348 347 346 344 343 347 348 350 349 349 350 350 349 349 349 352 348 350 348 344 340 338 335 339 339 339 341 341 343 344 344 344 345 346 345 344 340
350 350 351 351 350 349 348 347 345 344 346 349 350 350 348 349 348 348 349 349 349 347 347 346 349 346 342 337 337 339 339 340 341 342 344 344 345 345 345 347 347 345 344
350 350 352 352 350 348 348 346 343 344 348 350 352 350 349 349 348 348 349 351 350 352 349 348 348 344 338 336 337 339 338 339 341 341 344 344 343 342 341 340 341 344 345
350 351 351 350 350 347 347 348 348 349 350 351 351 353 351 349 350 348 349 349 351 350 352 349 348 344 339 339 335 339 340 339 340 340 341 344 344 341 338 337 340 343 342
350 350 351 351 350 349 347 349 349 348 350 351 352 352 353 349 349 349 349 349 351 353 352 350 348 345 337 339 339 338 338 341 338 341 339 340 341 341 337 336 338 338 332
349 350 350 350 350 349 349 349 349 350 350 351 352 353 352 352 349 349 350 350 351 351 351 347 347 346 340 338 339 339 339 338 340 340 340 339 340 339 339 336 335 337 334
348 350 350 350 350 350 349 349 349 350 350 351 352 352 352 352 352 350 352 351 351 352 350 348 346 346 342 336 336 339 338 338 338 340 341 340 339 338 336 337 334 334 337
Wind_Speed
17 21 20 23 24 24 25 24 24 26 25 23 21 17 14 13 13 12 11 11 11 11 11 9 10 11 10 10 10 10 9 9 10 10 10 11 11 12 12 12 13 11 12
23 21 19 21 22 23 25 25 25 25 23 21 18 16 14 13 12 12 11 10 10 11 11 10 9 10 9 9 10 10 9 8 8 9 10 10 10 12 12 11 13 12 13
23 19 19 20 21 22 24 24 23 22 20 18 16 15 14 12 12 11 10 10 10 10 10 10 9 8 8 7 7 8 7 7 9 8 8 8 8 11 11 11 11 12 12
21 19 17 20 20 20 22 21 19 18 18 17 15 14 13 11 10 11 10 9 8 9 9 9 9 7 7 6 6 5 6 7 9 8 7 9 10 11 10 12 12 11 11
21 19 18 20 20 19 19 18 18 17 16 15 14 12 11 10 10 10 9 9 9 9 8 8 6 5 6 5 4 3 5 6 6 8 7 9 9 9 10 10 11 10 12
21 19 20 20 18 17 17 17 15 15 15 14 12 11 10 9 9 9 8 8 9 9 8 7 5 4 5 5 3 2 3 5 7 6 7 7 8 9 12 10 11 11 13
22 20 20 20 18 16 16 15 13 13 12 12 11 10 9 8 8 7 7 9 10 9 8 7 6 5 6 5 4 3 5 5 8 6 6 7 7 9 10 11 10 11 12
22 22 20 20 18 17 15 13 12 11 10 10 9 8 8 7 7 7 6 7 8 7 6 7 7 6 5 6 4 3 2 5 7 6 5 5 8 8 10 9 10 10 11
21 21 20 18 16 15 13 12 11 9 9 8 8 7 7 6 6 6 6 6 5 5 5 5 5 5 5 5 5 4 2 4 6 5 5 6 8 8 8 10 8 9 8
20 20 20 19 16 14 12 11 10 9 8 7 7 6 6 5 4 4 5 4 5 5 5 4 4 4 5 7 5 3 5 4 4 5 4 5 6 7 6 9 7 9 9
19 20 20 19 17 15 13 11 10 8 8 7 6 5 3 2 1 1 2 4 4 6 4 3 4 5 6 6 5 4 4 3 4 3 4 8 7 5 6 8 6 7 8
22 21 20 20 18 16 13 11 10 9 7 6 5 5 3 2 2 1 1 1 2 3 1 1 2 4 5 5 5 3 1 2 2 2 4 8 9 6 5 4 6 7 6
24 22 22 20 18 17 14 13 11 10 8 7 8 7 6 4 4 3 3 2 1 1 3 2 1 2 3 3 3 3 2 2 2 3 4 7 7 7 7 6 4 7 6
24 24 22 20 18 17 15 14 12 12 10 8 8 9 7 4 3 3 2 1 1 1 1 3 2 2 2 3 2 2 3 3 3 3 3 5 6 7 7 5 6 5 6
25 24 22 21 19 18 17 15 14 13 11 10 11 10 8 5 4 3 3 3 2 3 2 2 2 1 1 1 1 1 2 2 4 4 4 5 6 5 5 6 5 7 7
26 25 22 21 20 19 19 18 15 13 12 13 11 11 11 8 6 5 5 5 6 5 3 2 2 1 1 1 1 3 1 1 1 2 4 3 4 3 3 5 7 6 7
26 24 23 22 21 20 20 19 17 15 13 13 13 13 13 11 8 7 5 6 6 6 5 4 3 2 2 1 0 1 3 2 1 3 3 3 3 3 4 3 3 6 7
26 25 23 22 22 22 21 20 18 15 14 13 13 13 14 13 11 10 8 7 7 7 6 5 3 3 1 2 2 2 2 4 3 2 3 3 3 4 4 4 3 2 3
27 25 25 23 24 23 22 20 20 18 17 14 13 13 14 15 15 13 11 9 9 8 6 5 1 1 2 3 3 2 2 2 2 1 2 3 4 4 5 7 6 4 2
26 24 23 24 25 24 21 21 17 17 17 15 15 16 16 17 16 16 15 12 10 7 7 5 3 1 0 1 2 3 3 2 2 2 4 3 1 2 3 5 6 5 4
26 26 26 26 27 25 24 22 20 20 18 17 17 16 13 14 15 16 15 13 11 9 7 5 3 3 1 1 1 2 3 4 5 5 5 5 5 5 5 3 1 2 3
31 31 29 29 29 30 26 26 21 22 19 19 17 18 16 14 15 15 18 14 12 9 8 5 6 3 2 2 1 2 3 3 3 3 4 4 4 5 5 5 3 2 2
32 33 34 36 36 34 29 22 19 15 16 16 19 19 20 19 18 16 17 17 14 11 8 7 7 6 3 3 3 1 3 2 4 1 2 2 3 3 4 5 5 5 5
35 33 32 32 34 35 36 27 27 26 24 24 22 21 21 23 21 18 18 16 16 11 10 9 9 8 5 4 3 3 1 1 3 4 4 4 4 3 2 3 4 4 4
35 33 32 32 33 33 35 33 30 28 25 21 20 21 25 22 25 22 20 17 17 15 13 11 11 11 8 5 6 5 3 3 2 3 4 6 7 6 5 4 4 4 4
33 32 31 32 35 34 35 39 35 32 29 23 22 21 21 21 22 25 20 19 18 16 16 13 13 13 11 8 7 7 6 4 6 5 4 5 7 6 6 7 7 6 6
Wind_Direction
137 132 125 131 130 131 128 126 128 132 133 136 135 130 124 119 115 109 100 94 92 89 92 105 112 112 106 105 104 103 102 103 109 112 115 118 114 114 108 114 109 110 107
142 133 128 129 130 129 131 129 130 132 134 134 132 127 122 116 109 104 98 93 86 87 90 102 101 104 104 107 104 106 99 95 108 117 118 124 117 112 117 114 118 125 114
143 136 131 129 126 125 127 130 129 131 132 131 128 122 121 113 106 101 97 91 88 84 82 86 93 98 102 103 105 111 100 93 112 125 127 131 122 116 120 121 113 116 117
145 141 136 135 129 126 128 126 126 127 128 129 125 123 116 108 100 94 92 87 85 84 83 85 86 97 98 108 116 110 112 109 106 113 99 122 128 121 123 117 120 117 118
146 146 143 140 133 129 128 128 128 128 127 126 124 119 115 107 96 89 85 85 81 78 76 79 88 100 116 123 122 115 115 127 110 106 108 124 123 128 126 128 117 120 118
148 149 149 143 138 134 131 130 133 131 131 128 123 122 120 110 99 88 83 71 64 74 75 78 88 96 97 121 120 120 125 147 142 116 121 126 123 130 126 125 123 115 120
151 151 150 150 147 139 136 140 140 131 130 130 128 122 115 107 96 86 72 63 68 71 82 89 89 86 93 93 75 67 83 119 152 134 127 129 127 131 124 112 112 111 116
150 152 157 157 155 147 146 150 141 137 140 133 127 121 113 105 96 87 76 68 69 73 81 83 82 82 75 70 72 69 92 114 128 127 126 130 153 137 125 120 121 118 115
154 156 162 163 162 157 157 159 154 151 146 136 127 122 115 105 95 85 76 75 79 88 83 73 69 64 59 64 65 65 59 118 122 127 124 137 157 137 137 135 132 121 119
161 165 166 169 170 167 168 171 170 163 157 143 130 125 125 112 100 82 77 68 83 81 74 69 55 45 51 64 64 61 75 98 124 127 132 153 150 146 140 143 135 135 133
169 174 175 176 179 176 175 183 180 175 171 161 147 145 139 151 130 67 88 74 84 90 79 79 49 44 46 91 66 56 72 81 109 151 158 176 157 172 168 152 152 140 135
176 180 181 183 185 184 183 188 193 187 185 190 188 189 200 212 221 231 326 65 73 90 107 116 23 24 48 76 90 34 76 130 130 139 174 171 174 173 174 174 170 158 162
182 184 185 186 188 187 188 195 198 199 198 203 202 208 224 237 260 284 285 303 306 352 52 85 89 71 49 55 80 76 89 97 119 165 184 176 171 178 184 185 177 171 187
188 190 188 188 190 194 196 202 206 203 204 209 216 215 231 254 273 300 311 269 300 312 344 81 151 104 53 40 51 69 83 115 106 144 158 164 172 189 193 194 199 183 194
193 193 192 191 196 199 204 207 209 210 211 215 220 224 231 242 267 298 302 278 304 315 320 348 145 151 137 309 206 93 53 82 92 122 155 137 156 177 208 211 204 201 204
196 197 194 196 200 203 208 212 213 215 217 221 227 229 233 238 253 288 281 281 286 300 285 320 6 47 343 334 338 198 192 123 170 151 141 162 162 176 200 218 218 212 212
200 199 198 197 201 207 212 216 218 220 221 226 231 231 233 234 243 258 272 273 280 297 259 263 322 322 46 7 187 182 251 222 199 209 200 180 192 186 199 205 222 231 227
203 203 201 200 204 209 213 217 219 224 224 230 233 235 238 239 245 256 263 265 266 276 274 300 327 354 39 30 187 24 285 215 209 234 214 197 204 195 209 206 212 189 226
204 204 205 204 207 210 214 218 222 227 230 233 238 244 241 245 243 248 253 256 272 271 262 267 304 350 34 69 71 41 28 163 205 185 205 208 225 223 220 231 218 226 238
206 206 206 207 209 211 212 218 221 227 231 233 238 249 254 243 238 241 244 246 263 252 260 261 221 240 41 42 37 57 70 71 76 58 114 122 77 219 218 222 216 232 238
208 207 207 206 209 207 208 210 215 220 224 231 237 239 241 233 233 238 237 239 247 248 256 252 218 234 247 282 177 111 81 81 76 81 89 77 73 80 75 66 129 238 256
208 210 209 209 209 211 210 208 207 214 223 225 230 234 237 234 236 241 233 232 239 237 251 236 212 191 173 169 156 164 186 140 97 77 85 89 86 89 75 56 48 66 95
210 210 210 210 211 212 208 207 211 216 221 224 229 233 235 238 238 241 238 234 234 238 242 237 230 217 194 177 192 214 182 200 174 134 95 103 101 105 78 66 78 86 91
212 211 212 213 209 213 212 205 204 210 216 223 225 229 231 237 237 238 243 233 232 235 240 247 239 224 212 189 173 210 211 147 207 187 197 192 189 184 158 106 94 106 109
212 212 210 210 212 210 210 208 210 217 223 226 227 227 234 235 235 238 235 236 240 239 243 248 240 229 235 218 202 173 185 193 192 245 216 194 215 216 218 208 175 161 147
211 211 211 207 211 211 210 213 212 216 218 222 227 228 231 234 233 231 229 233 240 237 239 243 242 230 233 236 223 209 207 208 200 205 230 233 234 217 230 231 222 208 201